Погода в Романовке

Россия / Оренбургская область     52°12′33″N   52°56′02″E
темп.,
°C
ветер,
м/с
пор.,
м/с
влажн.,
%
обл.,
%
осадки,
мм/ч
давл.,
гПа
погр.,
м
25 июля, вс
вс2523:00+20ссз354912 0.0 1011127
02:00+16ссз226396 0.0 101121
05:00+17сз356597 0.0 1012132
08:00+17с56675 0.0 1014324
11:00+22с55470 0.0 10161246
14:00+24с55342 0.0 10162293
17:00+25ссз652912 0.0 10172567
20:00+22с55301 0.0 10191129
26 июля, пн
пн2623:00+15с410440 0.0 1020222
02:00+13с33440 0.0 102133
05:00+11ссз33490 0.0 102229
08:00+15ссз57440 0.0 1022346
11:00+21с66320 0.0 10221719
14:00+23с55265 0.0 10222462
17:00+24ссз552431 0.0 10202858
20:00+23ссз4628100 0.0 1020608
27 июля, вт
вт2723:00+19сз373722 0.0 1021155
02:00+14с22460 0.0 102110
05:00+13с22515 0.0 102110
08:00+17ссз23435 0.0 1021185
11:00+22ссз34355 0.0 10201850
14:00+25сз452730 0.0 10182758
17:00+26ссз662539 0.0 10162781
20:00+24сз463277 0.0 1015808
28 июля, ср
ср2823:00+20зсз224399 0.0 101620
02:00+16сз345959 0.0 101557
05:00+14ссз47800 0.0 1016145
08:00+17с58641 0.0 1016408
11:00+22с67380 0.0 10161716
14:00+24с66252 0.0 10152111
17:00+25с56205 0.0 10152266
20:00+24с35230 0.0 1015282
29 июля, чт
чт2923:00+17в22360 0.0 101511
02:00+16ю23390 0.0 101416
05:00+15ююз34413 0.0 101454
08:00+19ююз473399 0.0 1014221
11:00+25зюз5628100 0.0 10131092
14:00+29зюз4526100 0.0 10112815
17:00+27зсз7632100 0.0 10101449
20:00+24сз81041100 0.0 1010779